Time,TemperatureF,DewpointF,PressureIn,WindDirection,WindDirectionDegrees,WindSpeedMPH,WindSpeedGustMPH,Humidity,HourlyPrecipIn,Conditions,Clouds,dailyrainin,SoftwareType,DateUTC
2013-02-08 00:02:00,69.0,60.0,29.80,WSW,250,0.0,0.0,74,0.00,,,0.00,,2013-02-08 05:02:00,
2013-02-08 00:12:00,69.0,60.0,29.80,WSW,250,0.0,0.0,74,0.00,,,0.00,,2013-02-08 05:12:00,
2013-02-08 00:22:00,69.0,60.0,29.80,WSW,250,0.0,0.0,74,0.00,,,0.00,,2013-02-08 05:22:00,
2013-02-08 00:32:00,69.0,60.0,29.80,WSW,250,0.0,0.0,74,0.00,,,0.00,,2013-02-08 05:32:00,
2013-02-08 00:42:00,69.0,60.0,29.80,WSW,250,0.0,0.0,74,0.00,,,0.00,,2013-02-08 05:42:00,
2013-02-08 00:52:00,69.0,60.0,29.80,WSW,250,0.0,0.0,74,0.00,,,0.00,,2013-02-08 05:52:00,
2013-02-08 01:01:00,68.0,59.0,29.80,WSW,250,0.0,0.0,74,0.00,,,0.00,,2013-02-08 06:01:00,
2013-02-08 01:11:00,68.0,59.0,29.80,WSW,250,0.0,0.0,74,0.00,,,0.00,,2013-02-08 06:11:00,
2013-02-08 01:21:00,68.0,59.0,29.83,WSW,250,0.0,0.0,74,0.00,,,0.00,,2013-02-08 06:21:00,
2013-02-08 01:32:00,68.0,59.0,29.80,WSW,250,0.0,0.0,74,0.00,,,0.00,,2013-02-08 06:32:00,
2013-02-08 01:42:00,68.0,59.0,29.80,WSW,250,0.0,0.0,74,0.00,,,0.00,,2013-02-08 06:42:00,
2013-02-08 01:51:00,68.0,59.0,29.80,WSW,250,0.0,0.0,74,0.00,,,0.00,,2013-02-08 06:51:00,
2013-02-08 02:01:00,68.0,60.0,29.83,WSW,250,0.0,0.0,75,0.00,,,0.00,,2013-02-08 07:01:00,
2013-02-08 02:11:00,67.0,59.0,29.83,WSW,250,0.0,0.0,75,0.00,,,0.00,,2013-02-08 07:11:00,
2013-02-08 02:21:00,67.0,59.0,29.83,WSW,250,0.0,0.0,75,0.00,,,0.00,,2013-02-08 07:21:00,
2013-02-08 02:32:00,65.0,57.0,29.83,WSW,250,0.0,0.0,75,0.00,,,0.00,,2013-02-08 07:32:00,
2013-02-08 02:42:00,64.0,56.0,29.83,WSW,250,0.0,0.0,76,0.00,,,0.00,,2013-02-08 07:42:00,
2013-02-08 02:51:00,64.0,56.0,29.83,WSW,250,0.0,0.0,76,0.00,,,0.00,,2013-02-08 07:51:00,
2013-02-08 03:01:00,63.0,55.0,29.83,WSW,250,0.0,0.0,76,0.00,,,0.00,,2013-02-08 08:01:00,
2013-02-08 03:11:00,62.0,55.0,29.83,WSW,250,0.0,0.0,77,0.00,,,0.00,,2013-02-08 08:11:00,
2013-02-08 03:21:00,62.0,55.0,29.83,WSW,250,0.0,0.0,77,0.00,,,0.00,,2013-02-08 08:21:00,
2013-02-08 03:32:00,61.0,54.0,29.83,WSW,250,0.0,0.0,78,0.00,,,0.00,,2013-02-08 08:32:00,
2013-02-08 03:42:00,61.0,54.0,29.83,WSW,250,0.0,0.0,78,0.00,,,0.00,,2013-02-08 08:42:00,
2013-02-08 03:52:00,61.0,54.0,29.83,WSW,250,0.0,0.0,78,0.00,,,0.00,,2013-02-08 08:52:00,
2013-02-08 04:03:00,60.0,53.0,29.85,WSW,250,0.0,0.0,77,0.00,,,0.00,,2013-02-08 09:03:00,
2013-02-08 04:11:00,60.0,53.0,29.85,WSW,250,0.0,0.0,77,0.00,,,0.00,,2013-02-08 09:11:00,
2013-02-08 04:21:00,60.0,53.0,29.85,WSW,250,0.0,0.0,77,0.00,,,0.00,,2013-02-08 09:21:00,
2013-02-08 04:32:00,60.0,52.0,29.85,WSW,250,0.0,0.0,74,0.00,,,0.00,,2013-02-08 09:32:00,
2013-02-08 04:42:00,60.0,52.0,29.85,WSW,250,0.0,0.0,74,0.00,,,0.00,,2013-02-08 09:42:00,
2013-02-08 04:52:00,60.0,51.0,29.85,WSW,250,0.0,0.0,73,0.00,,,0.00,,2013-02-08 09:52:00,
2013-02-08 05:01:00,60.0,51.0,29.85,WSW,250,0.0,0.0,73,0.00,,,0.00,,2013-02-08 10:01:00,
2013-02-08 05:12:00,60.0,51.0,29.85,WSW,250,0.0,0.0,73,0.00,,,0.00,,2013-02-08 10:12:00,
2013-02-08 05:22:00,60.0,51.0,29.88,WSW,250,0.0,0.0,73,0.00,,,0.00,,2013-02-08 10:22:00,
2013-02-08 05:32:00,59.0,50.0,29.88,WSW,250,0.0,0.0,73,0.00,,,0.00,,2013-02-08 10:32:00,
2013-02-08 05:42:00,59.0,50.0,29.88,WSW,250,0.0,0.0,73,0.00,,,0.00,,2013-02-08 10:42:00,
2013-02-08 05:52:00,59.0,51.0,29.88,WSW,250,0.0,0.0,74,0.00,,,0.00,,2013-02-08 10:52:00,
2013-02-08 06:01:00,58.0,50.0,29.88,WSW,250,0.0,0.0,74,0.00,,,0.00,,2013-02-08 11:01:00,
2013-02-08 06:11:00,58.0,50.0,29.88,WSW,250,0.0,0.0,74,0.00,,,0.00,,2013-02-08 11:11:00,
2013-02-08 06:21:00,58.0,50.0,29.88,West,275,1.0,8.0,74,0.00,,,0.00,,2013-02-08 11:21:00,
2013-02-08 06:32:00,58.0,49.0,29.88,West,275,8.0,8.0,73,0.00,,,0.00,,2013-02-08 11:32:00,
2013-02-08 06:42:00,58.0,49.0,29.88,West,275,8.0,8.0,73,0.00,,,0.00,,2013-02-08 11:42:00,
2013-02-08 06:52:00,58.0,49.0,29.88,West,275,8.0,8.0,73,0.00,,,0.00,,2013-02-08 11:52:00,
2013-02-08 07:02:00,58.0,50.0,29.91,West,275,8.0,8.0,74,0.00,,,0.00,,2013-02-08 12:02:00,
2013-02-08 07:11:00,58.0,50.0,29.91,West,275,8.0,8.0,74,0.00,,,0.00,,2013-02-08 12:11:00,
2013-02-08 07:22:00,58.0,50.0,29.91,West,275,8.0,8.0,75,0.00,,,0.00,,2013-02-08 12:22:00,
2013-02-08 07:33:00,58.0,50.0,29.94,West,275,8.0,8.0,75,0.00,,,0.00,,2013-02-08 12:33:00,
2013-02-08 07:42:00,58.0,50.0,29.94,West,275,8.0,8.0,75,0.00,,,0.00,,2013-02-08 12:42:00,
2013-02-08 07:52:00,58.0,50.0,29.94,West,280,7.0,7.0,74,0.00,,,0.00,,2013-02-08 12:52:00,
2013-02-08 08:02:00,58.0,50.0,29.94,WNW,295,5.0,5.0,74,0.00,,,0.00,,2013-02-08 13:02:00,
2013-02-08 08:12:00,58.0,50.0,29.94,WNW,295,5.0,5.0,74,0.00,,,0.00,,2013-02-08 13:12:00,
2013-02-08 08:22:00,58.0,50.0,29.94,WNW,295,5.0,5.0,74,0.00,,,0.00,,2013-02-08 13:22:00,
2013-02-08 08:32:00,58.0,49.0,29.94,WNW,295,3.0,3.0,73,0.00,,,0.00,,2013-02-08 13:32:00,
2013-02-08 08:42:00,58.0,49.0,29.94,WNW,295,3.0,3.0,73,0.00,,,0.00,,2013-02-08 13:42:00,
2013-02-08 08:51:00,58.0,49.0,29.94,WNW,295,3.0,3.0,73,0.00,,,0.00,,2013-02-08 13:51:00,
2013-02-08 09:02:00,58.0,49.0,29.94,WNW,285,2.0,3.0,73,0.00,,,0.00,,2013-02-08 14:02:00,
2013-02-08 09:11:00,58.0,49.0,29.94,WNW,285,2.0,3.0,73,0.00,,,0.00,,2013-02-08 14:11:00,
2013-02-08 09:22:00,59.0,50.0,29.97,West,275,1.0,5.0,72,0.00,,,0.00,,2013-02-08 14:22:00,
2013-02-08 09:32:00,59.0,50.0,29.97,West,275,3.0,5.0,72,0.00,,,0.00,,2013-02-08 14:32:00,
2013-02-08 09:42:00,59.0,50.0,29.97,West,275,3.0,5.0,72,0.00,,,0.00,,2013-02-08 14:42:00,
2013-02-08 09:52:00,59.0,49.0,29.97,West,270,5.0,5.0,70,0.00,,,0.00,,2013-02-08 14:52:00,
2013-02-08 10:02:00,59.0,49.0,29.97,West,280,3.0,6.0,69,0.00,,,0.00,,2013-02-08 15:02:00,
2013-02-08 10:12:00,59.0,49.0,29.97,West,280,3.0,6.0,69,0.00,,,0.00,,2013-02-08 15:12:00,
2013-02-08 10:22:00,59.0,49.0,29.97,West,280,3.0,6.0,69,0.00,,,0.00,,2013-02-08 15:22:00,
2013-02-08 10:32:00,61.0,50.0,29.97,WNW,285,5.0,5.0,66,0.00,,,0.00,,2013-02-08 15:32:00,
2013-02-08 10:42:00,61.0,50.0,29.97,WNW,285,5.0,5.0,66,0.00,,,0.00,,2013-02-08 15:42:00,
2013-02-08 10:52:00,61.0,50.0,30.00,West,280,3.0,5.0,66,0.00,,,0.00,,2013-02-08 15:52:00,
2013-02-08 11:02:00,63.0,50.0,30.00,WNW,295,3.0,6.0,63,0.00,,,0.00,,2013-02-08 16:02:00,
2013-02-08 11:11:00,63.0,50.0,30.00,WNW,295,3.0,6.0,63,0.00,,,0.00,,2013-02-08 16:11:00,
2013-02-08 11:22:00,63.0,50.0,30.00,West,270,5.0,6.0,62,0.00,,,0.00,,2013-02-08 16:22:00,
2013-02-08 11:32:00,63.0,49.0,30.00,WNW,285,6.0,7.0,61,0.00,,,0.00,,2013-02-08 16:32:00,
2013-02-08 11:42:00,63.0,49.0,30.00,WNW,285,6.0,7.0,61,0.00,,,0.00,,2013-02-08 16:42:00,
2013-02-08 11:52:00,64.0,50.0,30.00,WNW,290,6.0,6.0,61,0.00,,,0.00,,2013-02-08 16:52:00,
2013-02-08 12:03:00,64.0,50.0,30.00,West,280,5.0,5.0,60,0.00,,,0.00,,2013-02-08 17:03:00,
2013-02-08 12:12:00,64.0,50.0,30.00,West,280,5.0,5.0,60,0.00,,,0.00,,2013-02-08 17:12:00,
2013-02-08 12:23:00,64.0,49.0,29.97,West,270,2.0,2.0,58,0.00,,,0.00,,2013-02-08 17:23:00,
2013-02-08 12:32:00,64.0,49.0,29.97,West,260,3.0,7.0,59,0.00,,,0.00,,2013-02-08 17:32:00,
2013-02-08 12:42:00,64.0,49.0,29.97,West,260,3.0,7.0,59,0.00,,,0.00,,2013-02-08 17:42:00,
2013-02-08 12:52:00,64.0,49.0,29.97,West,260,3.0,0.0,59,0.00,,,0.00,,2013-02-08 17:52:00,
2013-02-08 13:02:00,64.0,49.0,29.97,West,260,3.0,0.0,59,0.00,,,0.00,,2013-02-08 18:02:00,
2013-02-08 13:12:00,64.0,49.0,29.97,West,260,3.0,0.0,59,0.00,,,0.00,,2013-02-08 18:12:00,
2013-02-08 13:24:00,64.0,49.0,29.97,West,260,3.0,0.0,59,0.00,,,0.00,,2013-02-08 18:24:00,
2013-02-08 13:35:00,65.0,50.0,29.97,West,275,6.0,6.0,59,0.00,,,0.00,,2013-02-08 18:35:00,
2013-02-08 13:43:00,65.0,50.0,29.97,West,275,6.0,6.0,59,0.00,,,0.00,,2013-02-08 18:43:00,
2013-02-08 13:52:00,65.0,50.0,29.97,West,275,6.0,6.0,59,0.00,,,0.00,,2013-02-08 18:52:00,
2013-02-08 14:02:00,65.0,50.0,29.97,West,275,6.0,6.0,59,0.00,,,0.00,,2013-02-08 19:02:00,
2013-02-08 14:11:00,65.0,50.0,29.97,West,275,6.0,6.0,59,0.00,,,0.00,,2013-02-08 19:11:00,
2013-02-08 14:22:00,66.0,51.0,29.94,West,275,10.0,10.0,58,0.00,,,0.00,,2013-02-08 19:22:00,
2013-02-08 14:33:00,66.0,51.0,29.94,WNW,289,8.0,10.0,58,0.00,,,0.00,,2013-02-08 19:33:00,
2013-02-08 14:42:00,66.0,51.0,29.94,WNW,289,8.0,10.0,58,0.00,,,0.00,,2013-02-08 19:42:00,
2013-02-08 14:52:00,66.0,50.0,29.94,West,270,6.0,8.0,56,0.00,,,0.00,,2013-02-08 19:52:00,
2013-02-08 15:02:00,67.0,51.0,29.94,West,275,7.0,8.0,56,0.00,,,0.00,,2013-02-08 20:02:00,
2013-02-08 15:12:00,67.0,51.0,29.94,West,275,7.0,8.0,56,0.00,,,0.00,,2013-02-08 20:12:00,
2013-02-08 15:22:00,67.0,51.0,29.94,WNW,285,6.0,6.0,56,0.00,,,0.00,,2013-02-08 20:22:00,
2013-02-08 15:32:00,67.0,50.0,29.94,West,265,8.0,13.0,55,0.00,,,0.00,,2013-02-08 20:32:00,
2013-02-08 15:42:00,67.0,50.0,29.94,West,265,8.0,13.0,55,0.00,,,0.00,,2013-02-08 20:42:00,
2013-02-08 15:50:00,66.0,50.0,29.94,West,280,8.0,8.0,57,0.00,,,0.00,,2013-02-08 20:50:00,
2013-02-08 15:52:00,67.0,50.0,29.94,West,265,8.0,13.0,55,0.00,,,0.00,,2013-02-08 20:52:00,
2013-02-08 16:02:00,66.0,50.0,29.94,West,280,8.0,8.0,57,0.00,,,0.00,,2013-02-08 21:02:00,
2013-02-08 16:11:00,66.0,50.0,29.94,West,280,8.0,8.0,57,0.00,,,0.00,,2013-02-08 21:11:00,
2013-02-08 16:22:00,66.0,50.0,29.94,West,280,8.0,8.0,57,0.00,,,0.00,,2013-02-08 21:22:00,
2013-02-08 16:33:00,66.0,50.0,29.94,West,280,8.0,8.0,57,0.00,,,0.00,,2013-02-08 21:33:00,
2013-02-08 16:42:00,66.0,50.0,29.94,West,280,8.0,8.0,57,0.00,,,0.00,,2013-02-08 21:42:00,
2013-02-08 17:02:00,65.0,50.0,29.94,West,275,7.0,8.0,58,0.00,,,0.00,,2013-02-08 22:02:00,
2013-02-08 17:12:00,65.0,50.0,29.94,West,275,7.0,8.0,58,0.00,,,0.00,,2013-02-08 22:12:00,
2013-02-08 17:22:00,65.0,50.0,29.94,WNW,285,7.0,8.0,59,0.00,,,0.00,,2013-02-08 22:22:00,
2013-02-08 17:32:00,64.0,50.0,29.97,WNW,290,6.0,6.0,60,0.00,,,0.00,,2013-02-08 22:32:00,
2013-02-08 17:42:00,64.0,50.0,29.97,WNW,290,6.0,6.0,60,0.00,,,0.00,,2013-02-08 22:42:00,
2013-02-08 17:52:00,64.0,51.0,29.97,West,275,6.0,8.0,62,0.00,,,0.00,,2013-02-08 22:52:00,
2013-02-08 18:02:00,63.0,50.0,29.97,West,270,7.0,8.0,63,0.00,,,0.00,,2013-02-08 23:02:00,
2013-02-08 18:11:00,63.0,50.0,29.97,West,270,7.0,8.0,63,0.00,,,0.00,,2013-02-08 23:11:00,
2013-02-08 18:21:00,63.0,50.0,29.97,West,280,6.0,7.0,63,0.00,,,0.00,,2013-02-08 23:21:00,
2013-02-08 18:32:00,62.0,50.0,29.97,West,265,8.0,9.0,65,0.00,,,0.00,,2013-02-08 23:32:00,
2013-02-08 18:42:00,62.0,50.0,29.97,West,265,8.0,9.0,65,0.00,,,0.00,,2013-02-08 23:42:00,
2013-02-08 18:52:00,61.0,49.0,29.97,West,265,5.0,6.0,65,0.00,,,0.00,,2013-02-08 23:52:00,
2013-02-08 19:02:00,61.0,50.0,30.00,West,260,1.0,1.0,67,0.00,,,0.00,,2013-02-09 00:02:00,
2013-02-08 19:11:00,61.0,50.0,30.00,West,260,1.0,1.0,67,0.00,,,0.00,,2013-02-09 00:11:00,
2013-02-08 19:22:00,60.0,49.0,30.00,WSW,250,2.0,3.0,68,0.00,,,0.00,,2013-02-09 00:22:00,
2013-02-08 19:32:00,60.0,50.0,30.00,WSW,250,3.0,3.0,70,0.00,,,0.00,,2013-02-09 00:32:00,
2013-02-08 19:42:00,60.0,50.0,30.00,WSW,250,3.0,3.0,70,0.00,,,0.00,,2013-02-09 00:42:00,
2013-02-08 19:52:00,60.0,50.0,30.00,West,280,2.0,3.0,70,0.00,,,0.00,,2013-02-09 00:52:00,
2013-02-08 20:02:00,60.0,50.0,30.00,West,275,2.0,2.0,69,0.00,,,0.00,,2013-02-09 01:02:00,
2013-02-08 20:11:00,60.0,50.0,30.00,West,275,2.0,2.0,69,0.00,,,0.00,,2013-02-09 01:11:00,
2013-02-08 20:22:00,60.0,50.0,30.00,WSW,250,1.0,2.0,69,0.00,,,0.00,,2013-02-09 01:22:00,
2013-02-08 20:32:00,59.0,49.0,30.03,NW,315,1.0,1.0,70,0.00,,,0.00,,2013-02-09 01:32:00,
2013-02-08 20:42:00,59.0,49.0,30.03,NW,315,1.0,1.0,70,0.00,,,0.00,,2013-02-09 01:42:00,
2013-02-08 20:52:00,59.0,49.0,30.03,NW,315,1.0,1.0,70,0.00,,,0.00,,2013-02-09 01:52:00,
2013-02-08 21:01:00,58.0,49.0,30.03,West,275,0.0,0.0,72,0.00,,,0.00,,2013-02-09 02:01:00,
2013-02-08 21:11:00,58.0,49.0,30.03,West,275,0.0,0.0,72,0.00,,,0.00,,2013-02-09 02:11:00,
2013-02-08 21:21:00,58.0,49.0,30.03,West,275,0.0,0.0,72,0.00,,,0.00,,2013-02-09 02:21:00,
2013-02-08 21:32:00,58.0,49.0,30.03,West,275,0.0,0.0,73,0.00,,,0.00,,2013-02-09 02:32:00,
2013-02-08 21:42:00,58.0,49.0,30.03,West,275,0.0,0.0,73,0.00,,,0.00,,2013-02-09 02:42:00,
2013-02-08 21:52:00,58.0,49.0,30.03,West,275,0.0,0.0,73,0.00,,,0.00,,2013-02-09 02:52:00,
2013-02-08 22:02:00,57.0,49.0,30.06,West,275,0.0,0.0,74,0.00,,,0.00,,2013-02-09 03:02:00,
2013-02-08 22:11:00,57.0,49.0,30.06,West,275,0.0,0.0,74,0.00,,,0.00,,2013-02-09 03:11:00,
2013-02-08 22:22:00,57.0,49.0,30.06,West,275,0.0,0.0,74,0.00,,,0.00,,2013-02-09 03:22:00,
2013-02-08 22:32:00,57.0,50.0,30.06,West,270,0.0,0.0,76,0.00,,,0.00,,2013-02-09 03:32:00,
2013-02-08 22:42:00,57.0,50.0,30.06,West,270,0.0,0.0,76,0.00,,,0.00,,2013-02-09 03:42:00,
2013-02-08 22:52:00,57.0,50.0,30.06,West,270,0.0,0.0,76,0.00,,,0.00,,2013-02-09 03:52:00,
2013-02-08 23:03:00,56.0,49.0,30.06,West,265,0.0,0.0,77,0.00,,,0.00,,2013-02-09 04:03:00,
2013-02-08 23:12:00,56.0,49.0,30.06,West,265,0.0,0.0,77,0.00,,,0.00,,2013-02-09 04:12:00,
2013-02-08 23:23:00,56.0,49.0,30.06,West,265,0.0,0.0,77,0.00,,,0.00,,2013-02-09 04:23:00,
2013-02-08 23:32:00,56.0,49.0,30.06,West,270,0.0,0.0,78,0.00,,,0.00,,2013-02-09 04:32:00,
2013-02-08 23:42:00,56.0,49.0,30.06,West,270,0.0,0.0,78,0.00,,,0.00,,2013-02-09 04:42:00,
2013-02-08 23:52:00,56.0,49.0,30.06,West,270,0.0,0.0,78,0.00,,,0.00,,2013-02-09 04:52:00,